Haleyville, AL

9:13 AM CDT on May 27, 2018 (GMT -0500)
Haleyville

Weather History for K1M4 - February, 2013

Change the Weather History Date:

Saturday, February 2, 2013

  Actual Average (KJFX) Record (KJFX)
Temperature  
Mean Temperature 36 °F -  
Max Temperature 47 °F 53 °F 78 °F (1989)
Min Temperature 26 °F 31 °F 11 °F (1980)
Degree Days  
Heating Degree Days 28    
Moisture  
Dew Point 32 °F    
Average Humidity 86    
Maximum Humidity 100    
Minimum Humidity 46    
Precipitation  
Precipitation 0.13 in - - ()
Sea Level Pressure  
Sea Level Pressure 30.22 in    
Wind  
Wind Speed 4 mph (SW)    
Max Wind Speed 13 mph    
Max Gust Speed -    
Visibility 5 miles    
Events Fog , Rain    
Averages and records for this station are not official NWS values.
T = Trace of Precipitation, MM = Missing Value Source: NWS Daily Summary

Daily Weather History Graph

Daily Weather History Graph

Search for Another Location

Airport or City:

Astronomy

Feb. 02, 2013 Rise Set
Actual Time 6:46 AM CST 5:21 PM CST
Civil Twilight 6:20 AM CST 5:48 PM CST
Nautical Twilight 5:50 AM CST 6:18 PM CST
Astronomical Twilight 5:21 AM CST 6:47 PM CST
Moon No Moon Rise 10:17 AM CST (2/2)
Length of Visible Light 11h 27m
Length of Day
10h 34m
Waning Gibbous, 59% of the Moon is Illuminated
Feb 2
Waning Gibbous
Feb 3
Last Quarter
Feb 10
New
Feb 17
First Quarter
Feb 25
Full

Hourly Weather History & Observations

Time (CST) Temp. Windchill Dew Point Humidity Pressure Visibility Wind Dir Wind Speed Gust Speed Precip Events Conditions
12:56 AM 26.1 °F - 12.0 °F 55% 30.36 in 10.0 mi Calm Calm - N/A   Clear
1:56 AM 27.1 °F 21.8 °F 13.1 °F 56% 30.34 in 10.0 mi SE 4.6 mph - N/A   Clear
2:56 AM 27.1 °F - 12.0 °F 53% 30.33 in 10.0 mi Calm Calm - N/A   Clear
3:56 AM 26.1 °F 17.6 °F 13.1 °F 58% 30.32 in 10.0 mi South 8.1 mph - N/A   Clear
4:56 AM 28.0 °F 21.7 °F 12.0 °F 51% 30.30 in 10.0 mi South 5.8 mph - N/A   Clear
5:56 AM 27.1 °F 18.2 °F 13.1 °F 56% 30.30 in 10.0 mi South 9.2 mph - N/A   Clear
6:56 AM 28.0 °F 19.3 °F 14.0 °F 56% 30.29 in 10.0 mi South 9.2 mph - N/A   Partly Cloudy
7:56 AM 31.1 °F 24.5 °F 14.0 °F 49% 30.32 in 10.0 mi South 6.9 mph - N/A   Scattered Clouds
8:56 AM 32.9 °F 25.9 °F 17.1 °F 52% 30.32 in 10.0 mi South 8.1 mph - 0.00 in Rain Light Rain
9:56 AM 36.0 °F 29.6 °F 18.1 °F 48% 30.30 in 10.0 mi SSW 8.1 mph - 0.00 in   Mostly Cloudy
10:56 AM 41.9 °F 35.0 °F 24.1 °F 49% 30.27 in 10.0 mi SW 12.7 mph - N/A   Scattered Clouds
11:56 AM 47.8 °F - 28.0 °F 46% 30.23 in 10.0 mi SW 9.2 mph - N/A   Partly Cloudy
12:56 PM 46.9 °F - 31.1 °F 54% 30.20 in 10.0 mi WSW 10.4 mph - N/A   Mostly Cloudy
1:47 PM 42.8 °F 40.1 °F 35.6 °F 76% 30.16 in 3.0 mi WSW 4.6 mph - 0.01 in Rain Light Rain
1:56 PM 41.9 °F 38.2 °F 34.9 °F 76% 30.20 in 7.0 mi West 5.8 mph - 0.02 in Rain Light Rain
2:25 PM 41.0 °F - 37.4 °F 87% 30.17 in 2.5 mi Calm Calm - 0.01 in Rain Rain
2:45 PM 41.0 °F 38.0 °F 37.4 °F 87% 30.17 in 4.0 mi SW 4.6 mph - 0.04 in Rain Rain
2:56 PM 41.0 °F 36.4 °F 37.9 °F 89% 30.20 in 2.5 mi WSW 6.9 mph - 0.05 in Rain Rain
3:12 PM 39.2 °F - 37.4 °F 93% 30.18 in 1.8 mi Calm Calm - 0.04 in Rain Heavy Rain
3:20 PM 39.2 °F 37.0 °F 39.2 °F 100% 30.18 in 3.0 mi Variable 3.5 mph - 0.06 in Rain Heavy Rain
3:31 PM 39.2 °F 34.2 °F 39.2 °F 100% 30.18 in 5.0 mi Variable 6.9 mph - 0.06 in Rain Light Rain
3:39 PM 39.2 °F 33.6 °F 39.2 °F 100% 30.18 in 10.0 mi West 8.1 mph - 0.06 in Rain Light Rain
3:56 PM 39.9 °F 36.7 °F 37.9 °F 93% 30.19 in 10.0 mi WSW 4.6 mph - 0.06 in   Mostly Cloudy
4:48 PM 41.0 °F 36.4 °F 39.2 °F 93% 30.15 in 10.0 mi WSW 6.9 mph - 0.00 in   Partly Cloudy
4:56 PM 39.9 °F 35.8 °F 38.8 °F 96% 30.19 in 10.0 mi WSW 5.8 mph - 0.00 in   Partly Cloudy
6:49 PM 37.4 °F - 37.4 °F 100% 30.17 in 3.0 mi Calm Calm - N/A   Mostly Cloudy
6:56 PM 37.9 °F 33.5 °F 37.9 °F 100% 30.21 in 4.0 mi SW 5.8 mph - N/A   Mostly Cloudy
7:03 PM 37.4 °F 32.1 °F 37.4 °F 100% 30.18 in 1.8 mi WSW 6.9 mph - N/A   Overcast
7:05 PM 37.4 °F 32.1 °F 37.4 °F 100% 30.18 in 1.0 mi West 6.9 mph - N/A   Overcast
7:56 PM 37.9 °F 32.7 °F 37.9 °F 100% 30.23 in 0.5 mi West 6.9 mph - N/A Fog Fog
8:32 PM 37.4 °F 32.1 °F 37.4 °F 100% 30.21 in 0.8 mi West 6.9 mph - N/A   Overcast
8:47 PM 37.4 °F 33.8 °F 37.4 °F 100% 30.21 in 1.2 mi Variable 4.6 mph - N/A   Overcast
8:56 PM 37.9 °F 35.5 °F 37.9 °F 100% 30.24 in 1.2 mi Variable 3.5 mph - N/A   Overcast
9:03 PM 37.4 °F - 37.4 °F 100% 30.21 in 1.8 mi Calm Calm - N/A   Overcast
9:09 PM 37.4 °F - 37.4 °F 100% 30.21 in 3.0 mi Calm Calm - N/A   Overcast
9:31 PM 37.4 °F - 37.4 °F 100% 30.19 in 5.0 mi Calm Calm - N/A   Scattered Clouds
9:41 PM 35.6 °F - 35.6 °F 100% 30.20 in 1.8 mi Calm Calm - N/A   Clear
9:56 PM 36.9 °F - 36.9 °F 100% 30.23 in 4.0 mi Calm Calm - N/A   Clear
10:10 PM 35.6 °F - 35.6 °F 100% 30.20 in 1.5 mi Calm Calm - N/A   Clear
10:12 PM 35.6 °F - 35.6 °F 100% 30.20 in 1.0 mi Calm Calm - N/A   Clear
10:21 PM 35.6 °F - 35.6 °F 100% 30.20 in 1.5 mi Calm Calm - N/A   Clear
10:25 PM 35.6 °F - 35.6 °F 100% 30.20 in 1.0 mi Calm Calm - N/A   Clear
10:28 PM 35.6 °F - 35.6 °F 100% 30.20 in 0.5 mi Calm Calm - N/A Fog Fog
10:42 PM 35.6 °F - 35.6 °F 100% 30.20 in 1.0 mi Calm Calm - N/A   Clear
10:47 PM 35.6 °F - 35.6 °F 100% 30.20 in 1.5 mi Calm Calm - N/A   Clear
10:56 PM 34.0 °F - 34.0 °F 100% 30.23 in 0.8 mi Calm Calm - N/A   Clear
11:01 PM 35.6 °F - 35.6 °F 100% 30.20 in 1.2 mi Calm Calm - N/A   Clear
11:09 PM 35.6 °F - 35.6 °F 100% 30.20 in 1.8 mi Calm Calm - N/A   Clear
11:16 PM 33.8 °F - 33.8 °F 100% 30.20 in 1.0 mi Calm Calm - N/A   Clear
11:23 PM 33.8 °F - 33.8 °F 100% 30.20 in 0.5 mi Calm Calm - N/A Fog Fog
11:36 PM 32.0 °F - 32.0 °F 100% 30.19 in 0.2 mi Calm Calm - N/A Fog Fog
11:56 PM 32.9 °F - 32.9 °F 100% 30.22 in 0.2 mi Calm Calm - N/A Fog Fog